{"data":{"norad_id":48236,"epoch":"2026-09-19T18:21:43.717248Z","epoch_age_seconds":81688,"freshness":"FRESH","line1":"1 48236U 21031AC  26262.76508932  .00000055  00000+0  11488-3 0  9992","line2":"2 48236  87.8891 270.8197 0002000  94.4627 265.6731 13.14504552260619","mean_motion":13.14504552,"eccentricity":0.0002,"inclination_deg":87.8891,"raan_deg":270.8197,"arg_perigee_deg":94.4627,"mean_anomaly_deg":265.6731,"bstar":0.00011488,"rev_number":26061,"period_min":109.54697705756,"perigee_km":1204.266831838,"apogee_km":1207.3004000844,"semimajor_km":7583.9206159612,"source":"CELESTRAK","updated_at":"2026-09-20T09:00:44.597760Z"}}